Hayward, WI

11:54 PM CST on January 20, 2017 (GMT -0600)
Sawyer County

Weather History for KHYR - March, 2014

Change the Weather History Date:

Wednesday, March 12, 2014

  Actual Average Record
Temperature  
Mean Temperature 19 °F -  
Max Temperature 28 °F 37 °F 66 °F (2016)
Min Temperature 10 °F 8 °F -15 °F (2009)
Degree Days  
Heating Degree Days 46    
Moisture  
Dew Point 3 °F    
Average Humidity 59    
Maximum Humidity 78    
Minimum Humidity 32    
Precipitation  
Precipitation 0.00 in - - ()
Sea Level Pressure  
Sea Level Pressure 30.10 in    
Wind  
Wind Speed 9 mph (NE)    
Max Wind Speed 17 mph    
Max Gust Speed 24 mph    
Visibility 9 miles    
Events Snow    
Averages and records for this station are not official NWS values.
T = Trace of Precipitation, MM = Missing Value Source: NWS Daily Summary

Daily Weather History Graph

Daily Weather History Graph

Search for Another Location

Airport or City:

Trip Planner

Search our weather history database for the weather conditions in past years. The results will help you decide how hot, cold, wet, or windy it might be!

Date:

Astronomy

Mar. 12, 2014 Rise Set
Actual Time 7:24 AM CDT 7:07 PM CDT
Civil Twilight 6:54 AM CDT 7:37 PM CDT
Nautical Twilight 6:19 AM CDT 8:12 PM CDT
Astronomical Twilight 5:44 AM CDT 8:47 PM CDT
Moon 3:29 PM CDT (3/12) 5:05 AM CDT (3/12)
Length of Visible Light 12h 43m
Length of Day
11h 43m
Waxing Gibbous, 85% of the Moon is Illuminated
Mar 12
Waxing Gibbous
Mar 16
Full
Mar 23
Last Quarter
Mar 30
New
Apr 7
First Quarter

Hourly Weather History & Observations

Time (CDT) Temp. Windchill Dew Point Humidity Pressure Visibility Wind Dir Wind Speed Gust Speed Precip Events Conditions
12:53 AM 28.0 °F 20.0 °F 15.1 °F 58% 29.99 in 10.0 mi NNW 8.1 mph - N/A   Overcast
1:14 AM 25.0 °F 15.5 °F 19.0 °F 78% 29.95 in 2.5 mi NNE 9.2 mph 21.9 mph 0.00 in Snow Light Snow
1:29 AM 24.1 °F 12.0 °F 17.1 °F 75% 29.96 in 5.0 mi NNE 13.8 mph 23.0 mph 0.00 in Snow Light Snow
1:53 AM 21.9 °F 11.0 °F 15.1 °F 75% 30.02 in 9.0 mi NNE 10.4 mph 20.7 mph 0.00 in   Overcast
2:24 AM 19.9 °F 10.1 °F 12.9 °F 74% 29.98 in 8.0 mi NNE 8.1 mph 17.3 mph N/A   Overcast
2:53 AM 19.0 °F 6.1 °F 10.9 °F 71% 30.05 in 7.0 mi NE 12.7 mph - 0.00 in Snow Light Snow
3:26 AM 17.1 °F 1.5 °F 9.0 °F 71% 30.01 in 5.0 mi NE 17.3 mph 21.9 mph 0.00 in Snow Light Snow
3:53 AM 16.0 °F 2.9 °F 9.0 °F 74% 30.06 in 5.0 mi NNE 11.5 mph 18.4 mph 0.00 in Snow Light Snow
4:53 AM 16.0 °F 0.6 °F 6.1 °F 65% 30.07 in 10.0 mi NE 16.1 mph 24.2 mph 0.00 in   Overcast
5:53 AM 14.0 °F 1.2 °F 5.0 °F 67% 30.10 in 10.0 mi NNE 10.4 mph - N/A   Mostly Cloudy
6:53 AM 10.9 °F -3.4 °F 3.0 °F 70% 30.13 in 10.0 mi NE 11.5 mph - N/A   Partly Cloudy
7:24 AM 10.9 °F -3.4 °F 3.0 °F 70% 30.07 in 10.0 mi NE 11.5 mph - N/A   Mostly Cloudy
7:53 AM 10.9 °F -2.6 °F 1.9 °F 67% 30.14 in 10.0 mi NNE 10.4 mph - N/A   Scattered Clouds
8:53 AM 10.9 °F -1.8 °F 3.0 °F 70% 30.16 in 9.0 mi NNE 9.2 mph - N/A   Mostly Cloudy
9:26 AM 10.9 °F -1.8 °F 1.9 °F 67% 30.11 in 10.0 mi NNE 9.2 mph - N/A   Mostly Cloudy
9:33 AM 10.9 °F -2.6 °F 3.0 °F 70% 30.11 in 10.0 mi NE 10.4 mph - N/A   Mostly Cloudy
9:46 AM 12.0 °F -1.3 °F 1.9 °F 64% 30.12 in 10.0 mi NE 10.4 mph - N/A   Scattered Clouds
9:53 AM 12.0 °F -1.3 °F 1.9 °F 64% 30.18 in 10.0 mi NE 10.4 mph - N/A   Partly Cloudy
10:53 AM 14.0 °F 2.9 °F 1.0 °F 56% 30.17 in 10.0 mi NNE 8.1 mph - N/A   Clear
11:53 AM 16.0 °F 5.3 °F -0.0 °F 49% 30.17 in 10.0 mi North 8.1 mph - N/A   Clear
12:53 PM 17.1 °F 8.7 °F 1.0 °F 50% 30.16 in 10.0 mi NE 5.8 mph - N/A   Clear
1:53 PM 19.0 °F 13.9 °F -0.9 °F 42% 30.15 in 10.0 mi Variable 3.5 mph - N/A   Clear
2:53 PM 21.0 °F 16.2 °F -2.0 °F 36% 30.14 in 10.0 mi Variable 3.5 mph - N/A   Clear
3:53 PM 21.0 °F 14.6 °F -5.1 °F 32% 30.12 in 10.0 mi Variable 4.6 mph - N/A   Clear
4:53 PM 21.9 °F 12.5 °F -2.9 °F 34% 30.12 in 10.0 mi NNE 8.1 mph - N/A   Clear
5:53 PM 21.0 °F - -4.0 °F 33% 30.12 in 10.0 mi Calm Calm - N/A   Clear
6:53 PM 19.0 °F - -2.9 °F 38% 30.13 in 10.0 mi Calm Calm - N/A   Clear
7:53 PM 14.0 °F - -2.0 °F 49% 30.14 in 10.0 mi Calm Calm - N/A   Clear
8:53 PM 12.0 °F - -2.0 °F 53% 30.14 in 10.0 mi Calm Calm - N/A   Clear
9:53 PM 12.0 °F 5.9 °F -2.9 °F 51% 30.12 in 10.0 mi ENE 3.5 mph - N/A   Clear
10:53 PM 10.0 °F - -4.0 °F 53% 30.11 in 10.0 mi Calm Calm - N/A   Clear
11:53 PM 12.0 °F 4.1 °F -5.1 °F 46% 30.06 in 10.0 mi South 4.6 mph - N/A   Clear